ROMMA est une association bénévole à but non lucratif. Votre soutien est indispensable : ADHERER à ROMMA ou FAIRE un DON

Ambérieu-en-Bugey - (01, Ain)

Bugey (255 m)   Longitude: 05° 21' 7"E   Latitude: 45° 58' 24"N Station partenaire n°84
 

Détail journalier du     <<     >>

Température Precipitation Humidité Pression Vent Dir Rafale Dir. rafale
Heure (°C) (mm) (%) (hPa) (km/h) (km/h)
01:00 14.708010011SO8SO
02:00 14.108010001S11SSE
03:00 14.108010001SSE11SSO
04:00 13.408210011OSO10SSO
05:00 13.907710011SSO11S
06:00 14.207110002S18SSE
07:00 13.307410011---15S
08:00 15.106710011S13SSO
09:00 16.9062100105SSO
10:00 17.605810024S21SO
11:00 15.807210034OSO21SO
12:00 14.20.88310043OSO19SO
13:00 12.73.28610065SSO19ESE
14:00 10.9382100612N39SSE
15:00 10.61.482100712N45SSE
16:00 11.80.47710059S39N
17:00 15.5064100510SSO34SSE
18:00 17.405110058SSO40S
19:00 17.104610058SO37O
20:00 15.604810068SO39OSO
21:00 14.205510075SO29OSO
22:00 13.205710084SO29SO
23:00 12.605910083SO18O
minuit 12.405810084SO18SSE

Graphique du 24-04-2019

 

Serveur OMMA